Find SAMSON 1

NORAD ID: 47937 Int'l Des: NNA 2021-022 Owner: TECN Country: IL operational
LEOCIRCULARRETROGRADESSO

現在のビュー

3D地球を読み込み中...

About SAMSON 1

SAMSON 1 (NORAD 47937) is a satellite launched Mar 22, 2021 by TECN of IL. It operates in LEO, CIRCULAR, RETROGRADE, SSO orbit with a mass of 12.00 kg.

次回通過

Passes for default location (London). Set your location on the main map for personalized predictions.

高度履歴

Loading altitude history...

軌道要素

1 47937U 21022F 26195.59514346 .00005371 00000-0 16831-3 0 9995
2 47937 97.3865 96.2726 0009512 7.8889 352.2501 15.33467153293919
Epoch: Jul 14, 2026 • Age: 6 hours

現在のステータス

高度 475.9 km
遠地点 / 近地点 N/A
速度 7.63 km/s
衛星直下点 -38.96°S, 135.87°W
打ち上げ日 Mar 22, 2021
運用期間 5.3 years
タイプ other

技術仕様

分類 Payload
質量 12.00 kg
乾燥質量 12.00 kg
総質量 12.00 kg
長さ 0.30 m
直径 0.20 m
スパン 0.70 m
形状 Box + 4 pan
製造者 TECN
バスタイプ Cubesat 6U
フェーズステータス In Orbit
所有者/国 TECN/IL

Most Searched